Ketchikan, AK

6:22 AM AKST on December 18, 2018 (GMT -0900)
Ketchikan International

Weather History for PAKT - May, 2018

Change the Weather History Date:

Monday, May 21, 2018

  Actual Average Record
Temperature  
Mean Temperature 50 °F -  
Max Temperature 52 °F 55 °F 87 °F (1963)
Min Temperature 50 °F 41 °F 34 °F (1973)
Degree Days  
Heating Degree Days 14    
Moisture  
Dew Point 48 °F    
Average Humidity 92    
Maximum Humidity 96    
Minimum Humidity 88    
Precipitation  
Precipitation 2.47 in - - ()
Sea Level Pressure  
Sea Level Pressure 29.90 in    
Wind  
Wind Speed 15 mph (SE)    
Max Wind Speed 21 mph    
Max Gust Speed 32 mph    
Visibility 3 miles    
Events Rain    
Averages and records for this station are not official NWS values.
T = Trace of Precipitation, MM = Missing Value Source: NWS Daily Summary

Daily Weather History Graph

Daily Weather History Graph

Search for Another Location

Airport or City:

Astronomy

May. 21, 2018 Rise Set
Actual Time 4:27 AM AKDT 9:01 PM AKDT
Civil Twilight 3:36 AM AKDT 9:52 PM AKDT
Nautical Twilight 2:14 AM AKDT 11:16 PM AKDT
Astronomical Twilight Sun does not rise Sun does not rise
Moon 11:19 AM AKDT (5/21) 1:58 AM AKDT (5/21)
Length of Visible Light 18h 16m
Length of Day
16h 34m
Waxing Crescent, 46% of the Moon is Illuminated
May 21
Waxing Crescent
May 21
First Quarter
May 29
Full
Jun 6
Last Quarter
Jun 13
New

Hourly Weather History & Observations

Time (AKDT) Temp. Dew Point Humidity Pressure Visibility Wind Dir Wind Speed Gust Speed Precip Events Conditions
12:00 AM 50.0 °F 48.0 °F 93% 29.93 in 1.8 mi SSE 11.5 mph - 0.04 in Rain Rain
12:04 AM 50.0 °F 48.0 °F 93% 29.93 in 1.8 mi SE 10.4 mph - 0.06 in Rain Rain
12:21 AM 50.0 °F 48.0 °F 93% 29.93 in 1.8 mi SSE 15.0 mph - 0.14 in Rain Rain
12:53 AM 50.0 °F 48.0 °F 93% 29.93 in 1.5 mi SE 13.8 mph 20.7 mph 0.30 in Rain Rain
1:09 AM 50.0 °F 48.0 °F 93% 29.92 in 3.0 mi SSE 11.5 mph 19.6 mph 0.07 in Rain Light Rain
1:32 AM 50.0 °F 48.0 °F 93% 29.91 in 5.0 mi SSE 12.7 mph 21.9 mph 0.14 in Rain Light Rain
1:49 AM 50.0 °F 48.2 °F 94% 29.91 in 1.8 mi SE 16.1 mph 21.9 mph 0.20 in Rain Rain
1:53 AM 50.0 °F 48.0 °F 93% 29.91 in 1.5 mi SE 15.0 mph - 0.23 in Rain Heavy Rain
2:07 AM 50.0 °F 48.0 °F 93% 29.90 in 2.5 mi SE 15.0 mph - 0.04 in Rain Light Rain
2:14 AM 50.0 °F 48.0 °F 93% 29.90 in 2.5 mi SE 11.5 mph - 0.07 in Rain Rain
2:29 AM 50.0 °F 48.0 °F 93% 29.90 in 4.0 mi SE 13.8 mph - 0.12 in Rain Light Rain
2:53 AM 50.0 °F 48.0 °F 93% 29.90 in 3.0 mi SSE 15.0 mph 21.9 mph 0.20 in Rain Rain
3:02 AM 50.0 °F 48.0 °F 93% 29.89 in 3.0 mi SSE 15.0 mph 23.0 mph 0.04 in Rain Rain
3:26 AM 50.0 °F 48.0 °F 93% 29.89 in 3.0 mi SE 16.1 mph - 0.13 in Rain Rain
3:43 AM 50.0 °F 48.0 °F 93% 29.88 in 2.5 mi SE 16.1 mph 23.0 mph 0.21 in Rain Rain
3:53 AM 50.0 °F 48.0 °F 93% 29.88 in 2.5 mi SE 16.1 mph 23.0 mph 0.25 in Rain Rain
4:25 AM 50.0 °F 48.9 °F 96% 29.87 in 3.0 mi SSE 16.1 mph - 0.13 in Rain Rain
4:53 AM 50.0 °F 48.9 °F 96% 29.88 in 3.0 mi SSE 15.0 mph - 0.22 in Rain Rain
5:50 AM 50.0 °F 48.2 °F 94% 29.88 in 2.5 mi SE 17.3 mph - 0.18 in Rain Rain
5:53 AM 50.0 °F 48.9 °F 96% 29.88 in 2.5 mi SE 15.0 mph - 0.19 in Rain Light Rain
6:00 AM 51.8 °F 48.2 °F 88% 29.88 in 4.0 mi SE 16.1 mph 24.2 mph N/A Rain Light Rain
6:53 AM 51.8 °F 48.2 °F 88% 29.88 in 4.0 mi SE 18.4 mph 32.2 mph N/A Rain Light Rain
7:53 AM 50.0 °F 48.2 °F 94% 29.88 in 4.0 mi SE 19.6 mph 29.9 mph N/A Rain Light Rain
8:00 AM 50.0 °F 48.2 °F 94% 29.88 in 4.0 mi SE 18.4 mph 25.3 mph N/A Rain Light Rain
8:53 AM 50.0 °F 48.2 °F 94% 29.89 in 4.0 mi SE 16.1 mph 26.5 mph N/A Rain Light Rain
9:53 AM 51.8 °F 48.2 °F 88% 29.88 in 5.0 mi SE 17.3 mph - N/A Rain Light Rain
10:53 AM 51.8 °F 48.2 °F 88% 29.88 in 4.0 mi SSE 12.7 mph 27.6 mph N/A Rain Rain
11:53 AM 51.8 °F 50.0 °F 94% 29.90 in 4.0 mi SE 20.7 mph 28.8 mph N/A Rain Light Rain
12:53 PM 51.8 °F 48.2 °F 88% 29.90 in 6.0 mi SE 15.0 mph 31.1 mph N/A Rain Light Rain
1:53 PM 51.8 °F 50.0 °F 94% 29.91 in 4.0 mi SE 18.4 mph 27.6 mph N/A Rain Light Rain
2:53 PM 51.1 °F 48.0 °F 89% 29.93 in 7.0 mi SSE 19.6 mph 28.8 mph 0.05 in Rain Light Rain
3:53 PM 51.1 °F 48.0 °F 89% 29.92 in 5.0 mi SSE 17.3 mph 31.1 mph 0.02 in Rain Light Rain
4:53 PM 51.8 °F 48.2 °F 88% 29.92 in 7.0 mi SSE 15.0 mph 27.6 mph N/A Rain Light Rain
5:53 PM 51.8 °F 48.2 °F 88% 29.92 in 3.0 mi SSE 13.8 mph 21.9 mph N/A Rain Light Rain
6:53 PM 51.8 °F 48.2 °F 88% 29.91 in 4.0 mi SE 16.1 mph 23.0 mph N/A Rain Light Rain
7:53 PM 51.8 °F 48.2 °F 88% 29.90 in 3.0 mi SE 16.1 mph 24.2 mph N/A Rain Light Rain
8:53 PM 50.0 °F 48.2 °F 94% 29.89 in 3.0 mi SE 11.5 mph - N/A Rain Light Rain
9:14 PM 50.0 °F 48.9 °F 96% 29.89 in 1.8 mi SSE 10.4 mph - 0.07 in Rain Rain
9:23 PM 51.1 °F 48.9 °F 92% 29.88 in 1.2 mi SSE 15.0 mph - 0.13 in Rain Rain
9:46 PM 51.1 °F 50.0 °F 96% 29.88 in 1.2 mi SE 13.8 mph 21.9 mph 0.28 in Rain Heavy Rain
9:53 PM 51.1 °F 50.0 °F 96% 29.89 in 1.5 mi SE 18.4 mph 24.2 mph 0.31 in Rain Rain
10:31 PM 51.1 °F 48.9 °F 92% 29.88 in 2.5 mi SE 20.7 mph 29.9 mph 0.20 in Rain Light Rain
10:36 PM 51.1 °F 48.9 °F 92% 29.88 in 3.0 mi SE 17.3 mph 29.9 mph 0.22 in Rain Rain
10:50 PM 51.8 °F 48.2 °F 88% 29.87 in 2.5 mi SE 13.8 mph - 0.28 in Rain Rain
10:53 PM 51.1 °F 48.9 °F 92% 29.88 in 2.0 mi SE 13.8 mph - 0.30 in Rain Rain
10:55 PM 51.1 °F 48.9 °F 92% 29.87 in 1.8 mi SE 18.4 mph 29.9 mph 0.01 in Rain Rain
11:53 PM 51.1 °F 50.0 °F 96% 29.87 in 2.0 mi SE 19.6 mph 25.3 mph 0.40 in Rain Rain